Lethbridge, Alberta

12:13 AM MST on December 08, 2016 (GMT -0700)
Lethbridge Airport

Weather History for CYQL - October, 2012

Change the Weather History Date:

Thursday, October 4, 2012

  Actual Average Record
Temperature  
Mean Temperature 34 °F -  
Max Temperature 45 °F 56 °F 77 °F (1996)
Min Temperature 23 °F 31 °F 8 °F (2014)
Degree Days  
Heating Degree Days 31    
Moisture  
Dew Point 23 °F    
Average Humidity 72    
Maximum Humidity 100    
Minimum Humidity 29    
Precipitation  
Precipitation 0.00 in 0.02 in - ()
Sea Level Pressure  
Sea Level Pressure 30.54 in    
Wind  
Wind Speed 6 mph ()    
Max Wind Speed 10 mph    
Max Gust Speed -    
Visibility 11.0 miles    
Events      
Averages and records for this station are not official NWS values.
T = Trace of Precipitation, MM = Missing Value Source: Averaged Metar Reports

Daily Weather History Graph

Daily Weather History Graph

Search for Another Location

Airport or City:

Trip Planner

Search our weather history database for the weather conditions in past years. The results will help you decide how hot, cold, wet, or windy it might be!

Date:

Astronomy

Oct. 04, 2012 Rise Set
Actual Time 7:36 AM MDT 7:02 PM MDT
Civil Twilight 7:04 AM MDT 7:33 PM MDT
Nautical Twilight 6:27 AM MDT 8:11 PM MDT
Astronomical Twilight 5:49 AM MDT 8:48 PM MDT
Moon 9:14 PM MDT (10/4) 12:22 PM MDT (10/4)
Length of Visible Light 12h 29m
Length of Day
11h 25m
Waning Gibbous, 81% of the Moon is Illuminated
Oct 4
Waning Gibbous
Oct 8
Last Quarter
Oct 15
New
Oct 21
First Quarter
Oct 29
Full

Hourly Weather History & Observations

Time (MDT) Temp. Windchill Dew Point Humidity Pressure Visibility Wind Dir Wind Speed Gust Speed Precip Events Conditions
12:00 AM 26 °F - 24 °F 89% 30.60 in 10 mi SW 6.9 mph - -  
12:00 AM 24.8 °F 16.9 °F 24.8 °F 100% 30.60 in 9.0 mi SW 6.9 mph - N/A   Clear
1:00 AM 26.6 °F 18.2 °F 24.8 °F 93% 30.58 in 9.0 mi SW 8.1 mph - N/A   Overcast
2:00 AM 28.4 °F 21.2 °F 24.8 °F 86% 30.57 in 9.0 mi WSW 6.9 mph - N/A   Overcast
3:00 AM 26.6 °F 20.0 °F 24.8 °F 93% 30.57 in 9.0 mi WSW 5.8 mph - N/A   Clear
5:00 AM 26.6 °F 17.5 °F 24.8 °F 93% 30.54 in 9.0 mi WSW 9.2 mph - N/A   Overcast
6:00 AM 26 °F - 23 °F 83% 30.56 in 10 mi SW 9.2 mph - -   Overcast
6:00 AM 26.6 °F 17.5 °F 23.0 °F 86% 30.55 in 15.0 mi SW 9.2 mph - N/A   Mostly Cloudy
7:00 AM 24.8 °F 16.1 °F 21.2 °F 86% 30.54 in 15.0 mi WSW 8.1 mph - N/A   Mostly Cloudy
8:00 AM 23.0 °F 12.4 °F 19.4 °F 86% 30.56 in 40.0 mi WSW 10.4 mph - N/A   Partly Cloudy
9:00 AM 26.6 °F 19.1 °F 23.0 °F 86% 30.57 in 40.0 mi West 6.9 mph - N/A   Partly Cloudy
10:00 AM 30.2 °F 21.9 °F 24.8 °F 80% 30.56 in 40.0 mi WSW 9.2 mph - N/A   Partly Cloudy
11:00 AM 35.6 °F 30.7 °F 26.6 °F 70% 30.56 in 40.0 mi West 5.8 mph - N/A   Partly Cloudy
12:00 PM 39 °F - 27 °F 50% 30.55 in 10 mi SW 5.8 mph - -  
12:00 PM 39.2 °F 35.0 °F 26.6 °F 61% 30.55 in 40.0 mi WSW 5.8 mph - N/A   Partly Cloudy
1:00 PM 41.0 °F 36.4 °F 24.8 °F 53% 30.54 in 40.0 mi WSW 6.9 mph - N/A   Mostly Cloudy
2:00 PM 41.0 °F 38.0 °F 21.2 °F 45% 30.52 in 40.0 mi SE 4.6 mph - N/A   Mostly Cloudy
3:00 PM 41.0 °F 37.1 °F 23.0 °F 49% 30.51 in 40.0 mi NNW 5.8 mph - N/A   Mostly Cloudy
4:00 PM 42.8 °F - 21.2 °F 42% 30.51 in 40.0 mi Calm Calm - N/A   Mostly Cloudy
5:00 PM 42.8 °F 41.1 °F 21.2 °F 42% 30.49 in 40.0 mi WSW 3.5 mph - N/A   Scattered Clouds
6:00 PM 43 °F - 22 °F 29% 30.50 in 10 mi West 4.6 mph - -  
6:00 PM 42.8 °F 39.3 °F 21.2 °F 42% 30.50 in 40.0 mi West 5.8 mph - N/A   Scattered Clouds
8:00 PM 32.0 °F 24.8 °F 24.8 °F 75% 30.54 in 40.0 mi South 8.1 mph - N/A   Partly Cloudy
9:00 PM 28.4 °F 22.2 °F 23.0 °F 80% 30.53 in 15.0 mi SSE 5.8 mph - N/A   Clear
10:00 PM 24.8 °F 19.1 °F 21.2 °F 86% 30.53 in 15.0 mi SSW 4.6 mph - N/A   Clear
11:00 PM 23.0 °F 15.8 °F 21.2 °F 93% 30.53 in 9.0 mi SSW 5.8 mph - N/A   Clear